Weather History for KEVM - October, 2013

Change the Weather History Date:

Thursday, October 10, 2013

  Actual Average Record
Temperature  
Mean Temperature 55 °F -  
Max Temperature 71 °F 54 °F 78 °F (2003)
Min Temperature 39 °F 33 °F 21 °F (2006)
Degree Days  
Heating Degree Days 10    
Growing Degree Days 5 (Base 50)    
Moisture  
Dew Point 44 °F    
Average Humidity 70    
Maximum Humidity 100    
Minimum Humidity 41    
Precipitation  
Precipitation 0.00 in - - ()
Sea Level Pressure  
Sea Level Pressure 29.99 in    
Wind  
Wind Speed 3 mph (SE)    
Max Wind Speed 16 mph    
Max Gust Speed 24 mph    
Visibility 8 miles    
Events Fog    
Averages and records for this station are not official NWS values.
T = Trace of Precipitation, MM = Missing Value Source: NWS Daily Summary

Daily Weather History Graph

Daily Weather History Graph

Search for Another Location

Airport or City:

Trip Planner

Search our weather history database for the weather conditions in past years. The results will help you decide how hot, cold, wet, or windy it might be!

Date:

Astronomy

Oct. 10, 2013 Rise Set
Actual Time 7:21 AM CDT 6:31 PM CDT
Civil Twilight 6:51 AM CDT 7:01 PM CDT
Nautical Twilight 6:15 AM CDT 7:37 PM CDT
Astronomical Twilight 5:39 AM CDT 8:12 PM CDT
Moon 1:29 PM CDT (10/10) 10:54 PM CDT (10/10)
Length of Visible Light 12h 10m
Length of Day
11h 09m
Waxing Crescent, 36% of the Moon is Illuminated
Oct 10
Waxing Crescent
Oct 11
First Quarter
Oct 18
Full
Oct 26
Last Quarter
Nov 3
New

Hourly Weather History & Observations

Time (CDT) Temp. Windchill Dew Point Humidity Pressure Visibility Wind Dir Wind Speed Gust Speed Precip Events Conditions
12:07 AM 44.6 °F - 44.6 °F 100% 30.05 in 5.0 mi Calm Calm - N/A   Clear
12:26 AM 44.6 °F - 42.8 °F 93% 30.05 in 7.0 mi Calm Calm - N/A   Clear
12:47 AM 42.8 °F - 42.8 °F 100% 30.05 in 2.0 mi Calm Calm - N/A   Clear
1:07 AM 42.8 °F - 42.8 °F 100% 30.05 in 7.0 mi Calm Calm - N/A   Clear
1:26 AM 42.8 °F - 41.0 °F 93% 30.05 in 1.5 mi Calm Calm - N/A   Mist
1:47 AM 42.8 °F - 41.0 °F 93% 30.05 in 1.5 mi Calm Calm - N/A   Mist
2:07 AM 42.8 °F 40.1 °F 41.0 °F 93% 30.05 in 0.5 mi NNE 4.6 mph - N/A Fog Fog
2:26 AM 41.0 °F - 41.0 °F 100% 30.04 in 5.0 mi Calm Calm - N/A   Clear
2:47 AM 42.8 °F - 41.0 °F 93% 30.04 in 0.8 mi Calm Calm - N/A   Mist
3:07 AM 41.0 °F - 41.0 °F 100% 30.04 in 0.2 mi Calm Calm - N/A Fog Fog
3:26 AM 42.8 °F - 41.0 °F 93% 30.05 in 0.8 mi Calm Calm - N/A   Mist
3:47 AM 39.2 °F - 37.4 °F 93% 30.05 in 0.5 mi Calm Calm - N/A Fog Fog
4:07 AM 41.0 °F - 41.0 °F 100% 30.05 in 0.5 mi Calm Calm - N/A Fog Fog
4:26 AM 39.2 °F - 37.4 °F 93% 30.05 in 0.5 mi Calm Calm - N/A Fog Fog
4:47 AM 39.2 °F 37.0 °F 37.4 °F 93% 30.05 in 0.5 mi NE 3.5 mph - N/A Fog Fog
5:07 AM 39.2 °F 37.0 °F 37.4 °F 93% 30.04 in 1.2 mi NE 3.5 mph - N/A   Mist
5:26 AM 39.2 °F - 37.4 °F 93% 30.04 in 1.0 mi Calm Calm - N/A   Mist
5:47 AM 41.0 °F 38.0 °F 41.0 °F 100% 30.04 in 1.8 mi NE 4.6 mph - N/A   Mist
6:07 AM 42.8 °F - 41.0 °F 93% 30.04 in 5.0 mi Calm Calm - N/A   Clear
6:26 AM 41.0 °F - 39.2 °F 93% 30.03 in 1.5 mi Calm Calm - N/A   Mist
6:47 AM 41.0 °F - 41.0 °F 100% 30.03 in 2.5 mi Calm Calm - N/A   Clear
7:06 AM 42.8 °F - 41.0 °F 93% 30.03 in 7.0 mi Calm Calm - N/A   Clear
7:27 AM 44.6 °F 42.2 °F 42.8 °F 93% 30.03 in 10.0 mi NE 4.6 mph - N/A   Clear
7:47 AM 44.6 °F 43.1 °F 42.8 °F 93% 30.03 in 10.0 mi NE 3.5 mph - N/A   Clear
8:06 AM 44.6 °F 43.1 °F 42.8 °F 93% 30.03 in 10.0 mi NE 3.5 mph - N/A   Clear
8:27 AM 44.6 °F 43.1 °F 44.6 °F 100% 30.03 in 10.0 mi NE 3.5 mph - N/A   Clear
8:47 AM 50.0 °F - 48.2 °F 94% 30.02 in 10.0 mi Calm Calm - N/A   Clear
9:06 AM 51.8 °F - 50.0 °F 94% 30.02 in 10.0 mi Calm Calm - N/A   Clear
9:27 AM 51.8 °F - 46.4 °F 82% 30.01 in 10.0 mi Calm Calm - N/A   Clear
9:47 AM 53.6 °F - 48.2 °F 82% 30.01 in 10.0 mi Calm Calm - N/A   Clear
10:06 AM 57.2 °F - 48.2 °F 72% 30.01 in 10.0 mi Calm Calm - N/A   Clear
10:27 AM 59.0 °F - 48.2 °F 67% 30.01 in 10.0 mi Calm Calm - N/A   Clear
10:47 AM 62.6 °F - 46.4 °F 55% 30.00 in 10.0 mi SSE 8.1 mph - N/A   Clear
11:06 AM 62.6 °F - 46.4 °F 55% 30.00 in 10.0 mi SE 6.9 mph - N/A   Clear
11:27 AM 64.4 °F - 46.4 °F 52% 30.00 in 10.0 mi South 10.4 mph - N/A   Clear
11:47 AM 64.4 °F - 46.4 °F 52% 29.99 in 10.0 mi South 10.4 mph - N/A   Clear
12:06 PM 68.0 °F - 46.4 °F 46% 29.99 in 10.0 mi South 10.4 mph - N/A   Clear
12:27 PM 69.8 °F - 46.4 °F 43% 29.99 in 10.0 mi SSE 11.5 mph 17.3 mph N/A   Clear
12:46 PM 68.0 °F - 46.4 °F 46% 29.98 in 10.0 mi SSE 8.1 mph 16.1 mph N/A   Clear
1:07 PM 69.8 °F - 46.4 °F 43% 29.98 in 10.0 mi SE 11.5 mph - N/A   Clear
1:27 PM 71.6 °F - 48.2 °F 43% 29.97 in 10.0 mi SE 13.8 mph 17.3 mph N/A   Clear
1:46 PM 71.6 °F - 46.4 °F 41% 29.96 in 10.0 mi SSE 10.4 mph 17.3 mph N/A   Clear
2:07 PM 71.6 °F - 46.4 °F 41% 29.95 in 10.0 mi South 12.7 mph 19.6 mph N/A   Clear
2:27 PM 71.6 °F - 48.2 °F 43% 29.95 in 10.0 mi SSE 11.5 mph 20.7 mph N/A   Clear
2:46 PM 71.6 °F - 48.2 °F 43% 29.95 in 10.0 mi South 16.1 mph 20.7 mph N/A   Clear
3:07 PM 71.6 °F - 46.4 °F 41% 29.94 in 10.0 mi South 15.0 mph - N/A   Clear
3:26 PM 71.6 °F - 46.4 °F 41% 29.93 in 10.0 mi SSE 15.0 mph - N/A   Clear
3:47 PM 71.6 °F - 46.4 °F 41% 29.93 in 10.0 mi SE 12.7 mph - N/A   Clear
4:07 PM 71.6 °F - 46.4 °F 41% 29.93 in 10.0 mi South 15.0 mph 24.2 mph N/A   Clear
4:27 PM 71.6 °F - 46.4 °F 41% 29.93 in 10.0 mi SSE 10.4 mph 18.4 mph N/A   Clear
4:46 PM 71.6 °F - 46.4 °F 41% 29.93 in 10.0 mi SE 9.2 mph - N/A   Clear
5:07 PM 69.8 °F - 46.4 °F 43% 29.93 in 10.0 mi SE 9.2 mph - N/A   Clear
5:27 PM 68.0 °F - 44.6 °F 43% 29.93 in 10.0 mi SSE 9.2 mph 18.4 mph N/A   Clear
5:46 PM 64.4 °F - 42.8 °F 45% 29.93 in 10.0 mi SE 8.1 mph - N/A   Clear
6:07 PM 64.4 °F - 44.6 °F 49% 29.93 in 10.0 mi SE 5.8 mph - N/A   Clear
6:26 PM 62.6 °F - 44.6 °F 52% 29.94 in 10.0 mi SE 6.9 mph - N/A   Clear
6:47 PM 62.6 °F - 42.8 °F 48% 29.93 in 10.0 mi SE 5.8 mph - N/A   Clear
7:07 PM 62.6 °F - 44.6 °F 52% 29.94 in 10.0 mi SE 6.9 mph - N/A   Clear
7:27 PM 60.8 °F - 44.6 °F 55% 29.95 in 10.0 mi SE 5.8 mph - N/A   Clear
7:46 PM 59.0 °F - 42.8 °F 55% 29.95 in 10.0 mi ESE 3.5 mph - N/A   Clear
8:06 PM 59.0 °F - 44.6 °F 59% 29.95 in 10.0 mi SE 4.6 mph - N/A   Clear
8:27 PM 59.0 °F - 44.6 °F 59% 29.96 in 10.0 mi SE 4.6 mph - N/A   Clear
8:47 PM 57.2 °F - 42.8 °F 59% 29.96 in 10.0 mi SE 4.6 mph - N/A   Clear
9:07 PM 57.2 °F - 42.8 °F 59% 29.96 in 10.0 mi ESE 5.8 mph - N/A   Clear
9:27 PM 57.2 °F - 42.8 °F 59% 29.96 in 10.0 mi ESE 4.6 mph - N/A   Clear
9:47 PM 57.2 °F - 44.6 °F 63% 29.96 in 10.0 mi East 3.5 mph - N/A   Clear
10:07 PM 55.4 °F - 44.6 °F 67% 29.96 in 10.0 mi East 3.5 mph - N/A   Clear
10:27 PM 53.6 °F - 44.6 °F 72% 29.97 in 10.0 mi East 3.5 mph - N/A   Clear
10:47 PM 51.8 °F - 42.8 °F 71% 29.97 in 10.0 mi Calm Calm - N/A   Clear
11:06 PM 51.8 °F - 42.8 °F 71% 29.96 in 10.0 mi Calm Calm - N/A   Clear
11:27 PM 50.0 °F - 42.8 °F 76% 29.96 in 10.0 mi NE 3.5 mph - N/A   Clear
11:47 PM 50.0 °F - 42.8 °F 76% 29.95 in 10.0 mi NE 4.6 mph - N/A   Clear